Location: Ay?beleni
(36.6500°N, 30.3000°E)
Time: 09:18:35
(UTC+00:00)

Meteor 1-11 - Pass Details

Date: 09 April 2020
Orbit: 841 x 886 km, 81.2° (Epoch: 31 May)

Event Time Altitude Azimuth Distance (km) Brightness Sun altitude
Rises 17:55:17 0° 350° (N) 3,470 7.9 -17.4°
Reaches altitude 10° 17:57:44 10° 350° (N) 2,522 7.1 -17.9°
Maximum altitude 18:03:29 85° 263° (W) 870 4.2 -18.9°
Enters shadow 18:08:29 13° 175° (S) 2,236 6.1 -19.8°
